FW8892 Weather Reports


Display with metric or nautical units.
time (UTC)temp
F
wind
direction
speed
MPH
gust
MPH
rain 1hr
in
rain 24hr
in
rain mn
in
humidity
%
barometer
mb
20260905035029 78 0 0.0 0.0 0.00 0.00 0.00 86 1014.8
20260905034549 78 0 0.0 0.0 0.00 0.00 0.00 86 1014.8
20260905034029 78 0 0.0 0.0 0.00 0.00 0.00 86 1015.0
20260905033528 78 0 0.0 0.0 0.00 0.00 0.00 86 1015.0
20260905033046 78 0 0.0 0.0 0.00 0.00 0.00 86 1015.1
20260905032529 78 0 0.0 0.0 0.00 0.00 0.00 87 1015.0
20260905032028 78 0 0.0 0.0 0.00 0.00 0.00 87 1015.1
20260905031602 78 0 0.0 1.0 0.00 0.00 0.00 87 1015.1
20260905031029 78 0 0.0 1.0 0.00 0.00 0.00 87 1015.1
20260905030528 79 0 0.0 0.0 0.00 0.00 0.00 86 1015.0
20260905030049 79 0 0.0 0.0 0.00 0.00 0.00 86 1015.1
20260905025528 79 0 0.0 0.0 0.00 0.00 0.00 86 1015.0
20260905025028 79 0 0.0 2.0 0.00 0.00 0.00 86 1015.1
20260905024548 79 0 0.0 2.0 0.00 0.00 0.00 86 1015.0
20260905024028 79 0 0.0 4.0 0.00 0.00 0.00 85 1015.1
20260905023528 80 0 0.0 4.0 0.00 0.00 0.00 85 1015.0
20260905023055 80 162 1.0 4.0 0.00 0.00 0.00 85 1015.1
20260905022529 80 0 0.0 1.0 0.00 0.00 0.00 85 1015.0
20260905022029 80 0 0.0 1.0 0.00 0.00 0.00 85 1014.9
20260905021548 80 0 0.0 1.0 0.00 0.00 0.00 84 1015.0
20260905021027 81 0 0.0 1.0 0.00 0.00 0.00 84 1015.0
20260905020532 81 0 0.0 7.0 0.00 0.00 0.00 83 1015.1
20260905020057 81 0 0.0 7.0 0.00 0.00 0.00 83 1015.0
20260905015528 81 159 3.0 7.0 0.00 0.00 0.00 83 1015.0
20260905015029 81 144 0.0 2.0 0.00 0.00 0.00 81 1014.8
20260905014548 81 0 0.0 0.0 0.00 0.00 0.00 81 1014.7
20260905014029 82 0 0.0 0.0 0.00 0.00 0.00 81 1014.7
20260905013529 82 0 0.0 0.0 0.00 0.00 0.00 80 1014.7
20260905013048 82 0 0.0 0.0 0.00 0.00 0.00 80 1014.6
20260905012529 83 0 0.0 0.0 0.00 0.00 0.00 80 1014.6
20260905012029 83 0 0.0 0.0 0.00 0.00 0.00 79 1014.7
20260905011600 83 0 0.0 0.0 0.00 0.00 0.00 78 1014.6
20260905011028 84 0 0.0 0.0 0.00 0.00 0.00 77 1014.6
20260905010529 84 0 0.0 0.0 0.00 0.00 0.00 76 1014.6
20260905010105 84 0 0.0 2.0 0.00 0.00 0.00 76 1014.6
20260905005527 85 0 0.0 2.0 0.00 0.00 0.00 76 1014.6
20260905005029 85 144 0.0 2.0 0.00 0.00 0.00 75 1014.5
20260905004550 86 0 0.0 2.0 0.00 0.00 0.00 74 1014.5
20260905004033 86 0 0.0 2.0 0.00 0.00 0.00 74 1014.4
20260905003529 86 0 0.0 2.0 0.00 0.00 0.00 73 1014.6
20260905003100 87 144 1.0 3.0 0.00 0.00 0.00 73 1014.5
20260905002531 87 160 0.0 3.0 0.00 0.00 0.00 72 1014.5
20260905002029 88 147 1.0 3.0 0.00 0.00 0.00 71 1014.5
20260905001556 88 163 0.0 2.0 0.00 0.00 0.00 71 1014.6
20260905001028 88 182 1.0 2.0 0.00 0.00 0.00 70 1014.6
20260905000529 89 0 0.0 2.0 0.00 0.00 0.00 69 1014.6
20260904235526 90 182 0.0 4.0 0.00 0.00 0.00 68 1014.5
20260904235029 90 149 0.0 4.0 0.00 0.00 0.00 68 1014.6
20260904234550 90 0 0.0 3.0 0.00 0.00 0.00 67 1014.5
20260904234029 90 201 1.0 5.0 0.00 0.00 0.00 66 1014.5
20260904233530 91 185 2.0 5.0 0.00 0.00 0.00 66 1014.3
20260904233058 91 148 1.0 3.0 0.00 0.00 0.00 65 1014.1
20260904232529 91 0 0.0 3.0 0.00 0.00 0.00 65 1014.2
20260904232028 92 0 0.0 3.0 0.00 0.00 0.00 64 1014.1
20260904231557 92 196 1.0 5.0 0.00 0.00 0.00 63 1014.0
20260904231029 92 161 2.0 5.0 0.00 0.00 0.00 62 1013.9
20260904230530 92 160 1.0 6.0 0.00 0.00 0.00 62 1013.9
20260904230107 93 166 3.0 6.0 0.00 0.00 0.00 62 1013.9
20260904225528 93 126 2.0 5.0 0.00 0.00 0.00 61 1013.9
20260904225031 93 166 1.0 5.0 0.00 0.00 0.00 60 1013.8
20260904224549 93 194 2.0 6.0 0.00 0.00 0.00 60 1013.9
20260904224029 93 113 3.0 6.0 0.00 0.00 0.00 60 1014.0
20260904223527 93 0 1.0 3.0 0.00 0.00 0.00 58 1014.0
20260904223058 93 94 1.0 3.0 0.00 0.00 0.00 59 1014.1
20260904222529 93 0 0.0 2.0 0.00 0.00 0.00 58 1014.1
20260904222027 93 0 0.0 3.0 0.00 0.00 0.00 58 1014.1
20260904221600 93 0 0.0 4.0 0.00 0.00 0.00 57 1014.0
20260904221029 93 69 1.0 6.0 0.00 0.00 0.00 58 1014.1
20260904220528 94 86 2.0 7.0 0.00 0.00 0.00 57 1014.1
20260904220119 94 105 2.0 9.0 0.00 0.00 0.00 57 1014.2
20260904215531 94 112 3.0 9.0 0.00 0.00 0.00 57 1014.3
20260904215029 94 109 5.0 9.0 0.00 0.00 0.00 56 1014.4
20260904214550 95 123 3.0 8.0 0.00 0.00 0.00 55 1014.5
20260904214031 95 123 2.0 7.0 0.00 0.00 0.00 56 1014.4
20260904213529 95 107 2.0 8.0 0.00 0.00 0.00 56 1014.5
20260904213050 95 287 2.0 8.0 0.00 0.00 0.00 56 1014.4
20260904212534 95 360 2.0 8.0 0.00 0.00 0.00 56 1014.4
20260904212030 95 0 1.0 6.0 0.00 0.00 0.00 55 1014.4
20260904211556 95 0 2.0 8.0 0.00 0.00 0.00 56 1014.4
20260904211033 95 36 3.0 9.0 0.00 0.00 0.00 54 1014.3
20260904210529 96 56 4.0 9.0 0.00 0.00 0.00 53 1014.3
20260904210049 97 46 2.0 8.0 0.00 0.00 0.00 53 1014.4
20260904205529 98 66 1.0 4.0 0.00 0.00 0.00 51 1014.5
20260904205029 99 336 2.0 5.0 0.00 0.00 0.00 51 1014.4
20260904204556 99 13 1.0 5.0 0.00 0.00 0.00 49 1014.4
20260904204027 100 346 2.0 5.0 0.00 0.00 0.00 49 1014.4
20260904203530 100 355 2.0 4.0 0.00 0.00 0.00 49 1014.5
20260904203049 100 261 1.0 3.0 0.00 0.00 0.00 53 1014.6
20260904202529 99 257 1.0 3.0 0.00 0.00 0.00 49 1014.7
20260904202029 98 0 0.0 3.0 0.00 0.00 0.00 48 1014.7
20260904201555 98 250 1.0 5.0 0.00 0.00 0.00 49 1014.9
20260904201029 99 355 2.0 5.0 0.00 0.00 0.00 49 1014.8
20260904200530 99 60 2.0 9.0 0.00 0.00 0.00 49 1014.8
20260904195530 100 319 4.0 9.0 0.00 0.00 0.00 49 1015.0
20260904195028 100 69 0.0 5.0 0.00 0.00 0.00 48 1015.1
20260904194557 100 355 2.0 5.0 0.00 0.00 0.00 53 1015.2
20260904194030 99 171 1.0 3.0 0.00 0.00 0.00 50 1015.2
20260904193530 99 317 1.0 4.0 0.00 0.00 0.00 49 1015.3
20260904193049 99 340 1.0 5.0 0.00 0.00 0.00 49 1015.4
20260904192532 99 284 1.0 5.0 0.00 0.00 0.00 50 1015.5
20260904192029 99 323 2.0 5.0 0.00 0.00 0.00 50 1015.5
20260904191545 99 13 1.0 4.0 0.00 0.00 0.00 49 1015.6
20260904191033 99 289 1.0 6.0 0.00 0.00 0.00 54 1015.7
20260904190529 98 260 1.0 6.0 0.00 0.00 0.00 55 1015.7
20260904190055 98 327 2.0 5.0 0.00 0.00 0.00 53 1015.8
20260904185529 98 33 2.0 5.0 0.00 0.00 0.00 52 1015.9
20260904185029 97 302 1.0 3.0 0.00 0.00 0.00 56 1015.9
20260904184607 97 284 1.0 3.0 0.00 0.00 0.00 55 1016.1
20260904184029 97 346 1.0 3.0 0.00 0.00 0.00 54 1016.1
20260904183528 97 355 0.0 2.0 0.00 0.00 0.00 54 1016.2
20260904183103 97 267 1.0 2.0 0.00 0.00 0.00 53 1016.2
20260904182529 98 0 0.0 2.0 0.00 0.00 0.00 54 1016.2
20260904182035 98 276 1.0 4.0 0.00 0.00 0.00 52 1016.3
20260904181556 98 0 1.0 4.0 0.00 0.00 0.00 53 1016.3
20260904181030 98 101 2.0 5.0 0.00 0.00 0.00 52 1016.3
20260904180530 98 299 2.0 7.0 0.00 0.00 0.00 54 1016.3
20260904180050 98 28 2.0 8.0 0.00 0.00 0.00 52 1016.4
20260904175528 98 89 2.0 8.0 0.00 0.00 0.00 53 1016.4
20260904175029 97 86 1.0 5.0 0.00 0.00 0.00 55 1016.4
20260904174618 97 168 2.0 4.0 0.00 0.00 0.00 55 1016.5
20260904174030 96 85 1.0 4.0 0.00 0.00 0.00 55 1016.4
20260904173529 96 0 0.0 3.0 0.00 0.00 0.00 54 1016.5
20260904173056 96 0 1.0 3.0 0.00 0.00 0.00 53 1016.6
20260904172532 96 11 0.0 1.0 0.00 0.00 0.00 56 1016.7
20260904172030 97 0 0.0 1.0 0.00 0.00 0.00 54 1016.7
20260904171602 97 0 0.0 3.0 0.00 0.00 0.00 55 1016.9
20260904171030 97 0 0.0 5.0 0.00 0.00 0.00 52 1016.9
20260904170529 98 301 1.0 5.0 0.00 0.00 0.00 52 1017.0
20260904170050 98 298 2.0 5.0 0.00 0.00 0.00 52 1017.0
20260904165529 99 0 1.0 4.0 0.00 0.00 0.00 52 1017.0
20260904165030 98 330 1.0 5.0 0.00 0.00 0.00 53 1017.2
20260904164547 98 225 0.0 5.0 0.00 0.00 0.00 55 1017.2
20260904164029 98 325 2.0 5.0 0.00 0.00 0.00 55 1017.1
20260904163530 98 0 1.0 5.0 0.00 0.00 0.00 54 1017.2
20260904163056 98 5 2.0 4.0 0.00 0.00 0.00 52 1017.1
20260904162530 98 114 1.0 8.0 0.00 0.00 0.00 54 1017.1
20260904162029 97 219 2.0 8.0 0.00 0.00 0.00 57 1017.2
20260904161604 97 128 2.0 5.0 0.00 0.00 0.00 56 1017.2
20260904161028 97 61 2.0 5.0 0.00 0.00 0.00 55 1017.3
20260904160529 98 47 2.0 5.0 0.00 0.00 0.00 55 1017.3
20260904160049 98 46 1.0 5.0 0.00 0.00 0.00 55 1017.4
20260904155530 98 179 2.0 5.0 0.00 0.00 0.00 55 1017.4
20260904155029 97 262 1.0 3.0 0.00 0.00 0.00 58 1017.3
20260904154557 97 346 1.0 3.0 0.00 0.00 0.00 55 1017.3
20260904154118 97 278 1.0 3.0 0.00 0.00 0.00 58 1017.3
20260904153531 97 0 1.0 3.0 0.00 0.00 0.00 58 1017.4
20260904153126 96 71 1.0 3.0 0.00 0.00 0.00 59 1017.3
20260904152528 96 311 1.0 3.0 0.00 0.00 0.00 58 1017.3
20260904152029 96 19 1.0 3.0 0.00 0.00 0.00 58 1017.4
20260904151558 96 313 1.0 3.0 0.00 0.00 0.00 58 1017.3
20260904151029 96 355 1.0 3.0 0.00 0.00 0.00 57 1017.3
20260904150529 96 259 1.0 4.0 0.00 0.00 0.00 58 1017.2
20260904150051 96 136 1.0 4.0 0.00 0.00 0.00 58 1017.4
20260904145529 95 217 1.0 4.0 0.00 0.00 0.00 62 1017.3
20260904145028 95 225 2.0 4.0 0.00 0.00 0.00 60 1017.3
20260904144559 95 207 1.0 4.0 0.00 0.00 0.00 62 1017.2
20260904144029 95 0 1.0 3.0 0.00 0.00 0.00 62 1017.2
20260904143529 95 224 0.0 2.0 0.00 0.00 0.00 62 1017.2
20260904143055 94 297 0.0 3.0 0.00 0.00 0.00 63 1017.2
20260904142528 93 0 0.0 3.0 0.00 0.00 0.00 64 1017.2
20260904142032 93 224 0.0 3.0 0.00 0.00 0.00 66 1017.1
20260904141557 92 187 0.0 2.0 0.00 0.00 0.00 66 1017.2
20260904141028 91 0 0.0 2.0 0.00 0.00 0.00 69 1017.1
20260904140527 91 0 0.0 2.0 0.00 0.00 0.00 68 1017.1
20260904140052 90 249 0.0 2.0 0.00 0.00 0.00 70 1017.1
20260904135532 90 107 0.0 2.0 0.00 0.00 0.00 70 1017.1
20260904135030 89 0 0.0 2.0 0.00 0.00 0.00 72 1017.0
20260904134605 89 0 0.0 2.0 0.00 0.00 0.00 73 1017.1
20260904134029 88 0 1.0 3.0 0.00 0.00 0.00 74 1017.1
20260904133530 88 107 1.0 3.0 0.00 0.00 0.00 75 1017.0
20260904133104 87 102 0.0 3.0 0.00 0.00 0.00 75 1017.0
20260904132528 86 101 1.0 3.0 0.00 0.00 0.00 76 1016.9
20260904132028 86 178 1.0 2.0 0.00 0.00 0.00 77 1017.0
20260904131558 85 0 1.0 2.0 0.00 0.00 0.00 79 1017.0
20260904131028 84 153 1.0 2.0 0.00 0.00 0.00 81 1017.0
20260904130528 83 0 0.0 2.0 0.00 0.00 0.00 81 1016.9
20260904130052 82 153 1.0 2.0 0.00 0.00 0.00 84 1016.9
20260904125529 81 153 0.0 1.0 0.00 0.00 0.00 86 1017.0
20260904125032 80 0 0.0 1.0 0.00 0.00 0.00 87 1016.8
20260904124557 79 0 0.0 0.0 0.00 0.00 0.00 89 1016.7
20260904124030 78 0 0.0 0.0 0.00 0.00 0.00 93 1016.8
20260904123529 77 0 0.0 0.0 0.00 0.00 0.00 95 1016.6
20260904123056 76 0 0.0 0.0 0.00 0.00 0.00 95 1016.7
20260904122529 76 0 0.0 0.0 0.00 0.00 0.00 97 1016.7
20260904122028 75 0 0.0 0.0 0.00 0.00 0.00 97 1016.6
20260904121559 74 0 0.0 1.0 0.00 0.00 0.00 98 1016.5
20260904121028 74 0 0.0 1.0 0.00 0.00 0.00 98 1016.6
20260904120529 73 0 0.0 0.0 0.00 0.00 0.00 98 1016.5
20260904115529 73 0 0.0 0.0 0.00 0.00 0.00 97 1016.5
20260904115029 73 0 0.0 0.0 0.00 0.00 0.00 97 1016.4
20260904114559 73 0 0.0 0.0 0.00 0.00 0.00 97 1016.3
20260904114030 73 0 0.0 0.0 0.00 0.00 0.00 96 1016.3
20260904113530 73 0 0.0 0.0 0.00 0.00 0.00 97 1016.2
20260904113058 73 0 0.0 0.0 0.00 0.00 0.00 96 1016.1
20260904112529 73 0 0.0 0.0 0.00 0.00 0.00 96 1016.2
20260904112031 73 0 0.0 0.0 0.00 0.00 0.00 96 1016.1
20260904111558 73 0 0.0 0.0 0.00 0.00 0.00 96 1016.1
20260904111040 73 0 0.0 0.0 0.00 0.00 0.00 96 1016.0
20260904110528 73 0 0.0 0.0 0.00 0.00 0.00 96 1016.0
20260904110056 73 0 0.0 0.0 0.00 0.00 0.00 96 1015.8
20260904105528 73 0 0.0 0.0 0.00 0.00 0.00 96 1015.8
20260904105029 73 0 0.0 0.0 0.00 0.00 0.00 96 1015.8
20260904104549 73 0 0.0 0.0 0.00 0.00 0.00 96 1015.8
20260904104029 73 0 0.0 0.0 0.00 0.00 0.00 97 1015.7
20260904103528 73 0 0.0 0.0 0.00 0.00 0.00 96 1015.6
20260904103102 73 0 0.0 0.0 0.00 0.00 0.00 96 1015.6
20260904102529 73 0 0.0 0.0 0.00 0.00 0.00 96 1015.5
20260904102028 73 0 0.0 0.0 0.00 0.00 0.00 96 1015.4
20260904101558 73 0 0.0 0.0 0.00 0.00 0.00 96 1015.4
20260904101028 73 0 0.0 0.0 0.00 0.00 0.00 96 1015.4
20260904100528 73 0 0.0 0.0 0.00 0.00 0.00 96 1015.4
20260904100053 73 0 0.0 0.0 0.00 0.00 0.00 96 1015.5
20260904095529 74 0 0.0 0.0 0.00 0.00 0.00 96 1015.4
20260904095030 74 0 0.0 0.0 0.00 0.00 0.00 95 1015.5
20260904094610 74 0 0.0 0.0 0.00 0.00 0.00 96 1015.4
20260904094029 74 0 0.0 0.0 0.00 0.00 0.00 96 1015.4
20260904093528 74 0 0.0 0.0 0.00 0.00 0.00 96 1015.4
20260904093059 74 0 0.0 0.0 0.00 0.00 0.00 96 1015.5
20260904092530 74 0 0.0 0.0 0.00 0.00 0.00 96 1015.3
20260904092031 74 0 0.0 0.0 0.00 0.00 0.00 96 1015.4
20260904091552 74 0 0.0 0.0 0.00 0.00 0.00 96 1015.5
20260904091029 74 0 0.0 0.0 0.00 0.00 0.00 96 1015.5
20260904090528 74 0 0.0 0.0 0.00 0.00 0.00 96 1015.5
20260904085528 74 0 0.0 0.0 0.00 0.00 0.00 95 1015.4
20260904085028 74 0 0.0 0.0 0.00 0.00 0.00 95 1015.5
20260904084601 74 0 0.0 0.0 0.00 0.00 0.00 95 1015.4
20260904084030 74 0 0.0 0.0 0.00 0.00 0.00 95 1015.5
20260904083529 74 0 0.0 0.0 0.00 0.00 0.00 95 1015.4
20260904083104 74 0 0.0 0.0 0.00 0.00 0.00 95 1015.4
20260904082528 74 0 0.0 1.0 0.00 0.00 0.00 95 1015.5
20260904082029 74 0 0.0 1.0 0.00 0.00 0.00 95 1015.5
20260904081549 74 0 0.0 1.0 0.00 0.00 0.00 94 1015.4
20260904081028 75 0 0.0 0.0 0.00 0.00 0.00 95 1015.4
20260904080530 75 0 0.0 0.0 0.00 0.00 0.00 95 1015.4
20260904080059 75 0 0.0 0.0 0.00 0.00 0.00 95 1015.4
20260904075528 75 0 0.0 0.0 0.00 0.00 0.00 95 1015.4
20260904075031 75 0 0.0 0.0 0.00 0.00 0.00 95 1015.3
20260904074552 75 0 0.0 0.0 0.00 0.00 0.00 95 1015.3
20260904074028 75 0 0.0 0.0 0.00 0.00 0.00 95 1015.3
20260904073531 75 0 0.0 0.0 0.00 0.00 0.00 94 1015.3
20260904073057 75 0 0.0 0.0 0.00 0.00 0.00 94 1015.3
20260904072529 75 0 0.0 0.0 0.00 0.00 0.00 94 1015.3
20260904072029 75 0 0.0 0.0 0.00 0.00 0.00 94 1015.3
20260904071616 75 0 0.0 0.0 0.00 0.00 0.00 94 1015.4
20260904071030 75 0 0.0 0.0 0.00 0.00 0.00 94 1015.3
20260904070530 75 0 0.0 0.0 0.00 0.00 0.00 94 1015.4
20260904070055 75 0 0.0 0.0 0.00 0.00 0.00 94 1015.4
20260904065529 75 0 0.0 0.0 0.00 0.00 0.00 94 1015.4
20260904065030 75 0 0.0 0.0 0.00 0.00 0.00 94 1015.5
20260904064554 75 0 0.0 0.0 0.00 0.00 0.00 94 1015.4
20260904064029 76 0 0.0 0.0 0.00 0.00 0.00 94 1015.5
20260904063529 76 0 0.0 0.0 0.00 0.00 0.00 94 1015.6
20260904063053 76 0 0.0 0.0 0.00 0.00 0.00 94 1015.6
20260904062529 76 0 0.0 0.0 0.00 0.00 0.00 94 1015.5
20260904062029 76 0 0.0 0.0 0.00 0.00 0.00 93 1015.6
20260904061604 76 0 0.0 0.0 0.00 0.00 0.00 93 1015.6
20260904061029 76 0 0.0 0.0 0.00 0.00 0.00 94 1015.7
20260904060531 76 0 0.0 0.0 0.00 0.00 0.00 93 1015.7
20260904060057 76 0 0.0 0.0 0.00 0.00 0.00 92 1015.7
20260904055528 76 0 0.0 0.0 0.00 0.00 0.00 93 1015.7
20260904055029 76 0 0.0 1.0 0.00 0.00 0.00 93 1015.7
20260904054551 76 0 0.0 1.0 0.00 0.00 0.00 92 1015.7
20260904054028 76 0 0.0 1.0 0.00 0.00 0.00 92 1015.7
20260904053527 76 0 0.0 0.0 0.00 0.00 0.00 92 1015.7
20260904053136 77 0 0.0 0.0 0.00 0.00 0.00 92 1015.7
20260904052527 77 0 0.0 0.0 0.00 0.00 0.00 92 1015.7
20260904052031 77 0 0.0 0.0 0.00 0.00 0.00 91 1015.6
20260904051551 77 0 0.0 0.0 0.00 0.00 0.00 91 1015.6
20260904051028 77 0 0.0 1.0 0.00 0.00 0.00 92 1015.7
20260904050528 77 0 0.0 1.0 0.00 0.00 0.00 91 1015.7
20260904050058 77 0 0.0 0.0 0.00 0.00 0.00 90 1015.6
20260904045529 77 0 0.0 0.0 0.00 0.00 0.00 90 1015.7
20260904045029 77 0 0.0 0.0 0.00 0.00 0.00 91 1015.7
20260904044551 77 0 0.0 0.0 0.00 0.00 0.00 90 1015.8
20260904044029 77 0 0.0 0.0 0.00 0.00 0.00 90 1015.8
20260904043530 78 0 0.0 1.0 0.00 0.00 0.00 89 1015.8
20260904043047 78 0 0.0 1.0 0.00 0.00 0.00 90 1015.9
20260904042529 78 0 0.0 1.0 0.00 0.00 0.00 89 1015.9
20260904042029 78 0 0.0 0.0 0.00 0.00 0.00 88 1015.9
20260904041601 78 0 0.0 0.0 0.00 0.00 0.00 88 1015.8
20260904041030 78 0 0.0 0.0 0.00 0.00 0.00 88 1015.9
20260904040528 78 0 0.0 0.0 0.00 0.00 0.00 88 1015.9
20260904040051 78 0 0.0 0.0 0.00 0.00 0.00 88 1016.0
20260904035529 78 0 0.0 0.0 0.00 0.00 0.00 88 1016.0